Location: Boiro
(42.6475°N, 8.8834°W)
Time: 03:31:35
(UTC+02:00)

LINGQIAO VIDEO B - Pass Details

Date: 01 July 2022
Orbit: 636 x 662 km, 97.7° (Epoch: 14 August)

Event Time Altitude Azimuth Distance (km) Brightness Sun altitude
Rises 23:02:57 0° 178° (S) 2,960 ? -7.5°
Reaches altitude 10° 23:05:12 10° 183° (S) 2,058 ? -7.8°
Maximum altitude 23:09:36 53° 260° (W) 810 ? -8.4°
Drops below altitude 10° 23:14:03 10° 338° (NNW) 2,086 ? -9.0°
Sets 23:16:21 0° 343° (NNW) 3,006 ? -9.3°
